www.pogodaiklimat.ru

Погода и климат >> Архив погоды >> Австралия >> Weipa Aero


ПОГОДА в Weipa Aero

  • Прогноз погоды в Weipa Aero
  • Монитор погоды в Weipa Aero
  • Климат города

АРХИВ ПОГОДЫ в Weipa Aero

Время (UTC), дата Ветер
(напр.,м/с)
 
Видим.   Явления Облачность Т
(С)
Тd
(С)
f
(%)
Тe
(С)
Тes
(С)
Комфортность P
(гПа)
Po
(гПа)
Тmin
(С)
Tmax
(С)
R
(мм)
R24
(мм)
S
(см)
05 8.08 ЮВ 4 н/о 10/10 1500 м
[]
+29.8 +17.6 48 +34 +34 очень
душно
1011.0 1008.9
06 8.08 В 4 н/о н/о +30.1 +17.5 47 +34 +34 очень
душно
1010.9 1008.8
08 8.08 В 4 н/о 10/10 1500 м
[]
+29.5 +17.3 48 +34 +34 очень
душно
1011.5 1009.4
09 8.08 СВ 3 н/о н/о +28.3 +17.5 52 +32 +32 душно 1012.1 1010.0
11 8.08 В 6 н/о 10/10 1000 м
[]
+26.6 +17.7 58 +31 +31 душно 1013.7 1011.6
12 8.08 В 5 н/о н/о +25.7 +17.9 62 +30 +30 душно 1014.2 1012.1
14 8.08 В 5 н/о 10/0 2000 м
[]
+24.4 +18.8 71 +29 +29 душно 1014.2 1012.1 +31.7
15 8.08 В 5 н/о н/о +24.2 +19.1 73 +29 +29 душно 1013.9 1011.8
17 8.08 В 3 н/о 5/0 2000 м
[]
+23.3 +19.0 77 +30 +30 очень
душно
1013.1 1011.0
18 8.08 ЮВ 2 н/о н/о +22.4 +19.0 81 +28 +28 душно 1013.0 1010.9
20 8.08 ЮВ 3 н/о н/о +21.4 +19.0 86 +26 +26 душно 1013.4 1011.3
21 8.08 ЮВ 3 н/о н/о +21.4 +19.3 88 +26 +26 душно 1013.9 1011.8
23 8.08 В 6 н/о н/о +25.8 +19.9 70 +32 +32 очень
душно
1015.0 1012.9
00 9.08 В 7 н/о н/о +26.8 +19.7 65 +33 +33 очень
душно
1015.4 1013.3
02 9.08 В 6 н/о 10/10 1000 м
[]
+29.8 +19.8 55 +36 +36 очень
душно
1013.6 1011.5 +21.3
03 9.08 В 8 н/о н/о +30.2 +19.6 53 +36 +36 очень
душно
1012.6 1010.5
05 9.08 В 7 н/о 3/3 1000 м
[]
+31.7 +17.6 43 +36 +38 очень
душно
1011.0 1008.9
06 9.08 ЮВ 7 н/о н/о +32.0 +17.9 43 +36 +36 очень
душно
1010.7 1008.6
08 9.08 В 6 н/о 5/0
[]
+29.6 +17.8 49 +34 +34 очень
душно
1011.7 1009.6
09 9.08 В 8 н/о н/о +28.0 +18.7 57 +33 +33 очень
душно
1012.4 1010.3
11 9.08 В 5 н/о н/о +25.4 +19.3 69 +31 +31 очень
душно
1014.4 1012.3
12 9.08 В 6 н/о н/о +24.7 +19.5 73 +30 +30 очень
душно
1014.9 1012.8
14 9.08 В 5 н/о н/о +23.8 +19.5 77 +29 +29 душно 1015.0 1012.9 +32.9
15 9.08 В 6 н/о н/о +23.7 +19.2 76 +29 +29 душно 1014.6 1012.5
17 9.08 В 5 н/о 1/0 2000 м
[]
+23.2 +19.4 79 +30 +30 очень
душно
1013.6 1011.5
18 9.08 В 4 н/о н/о +22.8 +19.4 81 +29 +29 очень
душно
1013.4 1011.3
20 9.08 В 4 н/о н/о +22.0 +19.0 83 +27 +27 душно 1014.1 1012.0
21 9.08 В 4 н/о н/о +21.6 +19.0 85 +26 +26 душно 1014.5 1012.4
23 9.08 В 8 н/о н/о +25.5 +18.2 64 +30 +30 душно 1015.4 1013.3
00 10.08 В 8 н/о н/о +27.3 +18.3 58 +32 +32 очень
душно
1015.5 1013.4
02 10.08 В 8 н/о н/о +28.8 +16.4 47 +32 +32 душно 1014.2 1012.1 +21.7
03 10.08 В 7 н/о н/о +31.0 +17.3 44 +35 +35 очень
душно
1013.1 1011.0
05 10.08 В 7 н/о 1/1 1500 м
[]
+30.6 +16.2 42 +34 +37 очень
душно
1011.5 1009.4
06 10.08 В 5 н/о н/о +30.2 +15.5 41 +33 +33 душно 1011.3 1009.2
08 10.08 В 5 н/о н/о +28.1 +16.1 48 +31 +31 душно 1011.7 1009.6
09 10.08 СВ 4 н/о н/о +26.5 +16.4 54 +30 +30 душно 1012.2 1010.1
11 10.08 В 5 н/о н/о +24.1 +16.1 61 +27 +27 жарко 1014.1 1012.0
12 10.08 В 5 н/о н/о +23.2 +16.0 64 +28 +28 душно 1014.6 1012.5
14 10.08 В 2 н/о н/о +20.9 +16.3 75 +25 +25 комфорт 1014.8 1012.7 +32.0
15 10.08 В 2 н/о н/о +20.4 +16.6 79 +24 +24 комфорт 1014.6 1012.5
17 10.08 В 3 н/о 1/1 300 м
[]
+19.3 +16.5 84 +21 +21 комфорт 1013.8 1011.7
18 10.08 ЮВ 3 н/о н/о +18.9 +16.7 87 +21 +21 комфорт 1013.7 1011.6
20 10.08 штиль 0 н/о н/о +18.2 +16.4 89 +19 +19 1014.1 1012.0
21 10.08 В 3 н/о н/о +18.5 +16.8 90 +19 +19 1014.7 1012.6
23 10.08 В 5 н/о н/о +23.5 +17.7 70 +28 +28 душно 1015.6 1013.5
00 11.08 В 5 н/о н/о +26.3 +16.8 56 +30 +30 душно 1015.8 1013.7
02 11.08 ЮВ 4 н/о н/о +30.0 +15.7 42 +33 +33 душно 1014.4 1012.3 +18.1
03 11.08 ЮВ 4 н/о н/о +30.6 +12.0 32 +31 +31 жарко 1013.2 1011.1
05 11.08 ЮЗ 4 н/о 1/0 2000 м
[]
+31.4 +12.7 32 +32 +40 жарко 1011.1 1009.0
06 11.08 ЮЗ 5 н/о н/о +29.8 +17.6 48 +34 +34 очень
душно
1010.9 1008.8
08 11.08 ЮЗ 4 н/о н/о +26.4 +18.8 63 +31 +31 душно 1011.7 1009.6
09 11.08 ЮЗ 3 н/о н/о +25.1 +19.5 71 +30 +30 душно 1012.4 1010.3
11 11.08 СВ 3 н/о 9/9 1500 м
[]
+24.9 +19.1 70 +30 +30 душно 1014.2 1012.1
12 11.08 СВ 3 н/о н/о +24.7 +19.1 71 +30 +30 очень
душно
1014.5 1012.4
14 11.08 СВ 3 н/о н/о +22.7 +16.9 70 +27 +27 душно 1014.3 1012.2 +32.3
15 11.08 штиль 0 н/о н/о +21.6 +16.3 72 +25 +25 комфорт 1014.4 1012.3
17 11.08 ЮВ 1 н/о н/о +19.2 +16.4 84 +22 +22 комфорт 1013.6 1011.5
18 11.08 В 1 н/о н/о +18.7 +16.1 85 +21 +21 комфорт 1013.7 1011.6
20 11.08 В 2 н/о н/о +18.1 +16.3 89 +19 +19 1014.4 1012.3
21 11.08 В 2 н/о н/о +18.4 +16.7 90 +20 +20 1015.1 1013.0
23 11.08 В 5 н/о н/о +24.0 +17.5 67 +28 +28 душно 1016.2 1014.1
00 12.08 В 5 н/о н/о +26.0 +17.1 58 +30 +30 душно 1016.3 1014.2
02 12.08 ЮВ 4 н/о н/о +28.7 +15.2 44 +31 +31 жарко 1014.7 1012.6 +18.0
03 12.08 В 4 н/о н/о +30.2 +13.5 36 +32 +32 жарко 1013.6 1011.5
05 12.08 З 5 н/о 3/0 2000 м
[]
+29.4 +17.2 48 +33 +38 душно 1012.2 1010.1
06 12.08 ЮЗ 4 н/о н/о +28.6 +19.0 56 +34 +34 очень
душно
1012.0 1009.9
08 12.08 ЮЗ 4 н/о 1/0 2000 м
[]
+25.8 +19.2 67 +31 +31 очень
душно
1012.5 1010.4
09 12.08 ЮЗ 3 н/о н/о +24.9 +18.8 69 +30 +30 душно 1013.2 1011.1
11 12.08 Ю 3 н/о 8/0 2000 м
[]
+24.1 +19.4 75 +29 +29 душно 1015.2 1013.1
12 12.08 ЮВ 2 н/о н/о +22.8 +18.6 77 +29 +29 очень
душно
1015.4 1013.3
14 12.08 ЮВ 1 н/о н/о +21.0 +18.4 85 +27 +27 душно 1015.3 1013.2 +32.2
15 12.08 ЮВ 1 н/о н/о +20.4 +18.2 87 +25 +25 комфорт 1015.0 1012.9
17 12.08 В 2 н/о н/о +19.4 +17.5 89 +22 +22 комфорт 1013.8 1011.7
18 12.08 штиль 0 н/о н/о +17.9 +15.9 88 +18 +18 1013.9 1011.8
20 12.08 В 2 н/о н/о +17.8 +16.1 90 +18 +18 1014.7 1012.6
21 12.08 В 2 н/о н/о +17.6 +15.8 89 +18 +18 1015.7 1013.6
23 12.08 ЮВ 4 н/о н/о +24.1 +16.9 64 +28 +28 душно 1017.0 1014.9
00 13.08 В 6 н/о н/о +26.0 +16.8 57 +30 +30 душно 1016.9 1014.8
02 13.08 ЮВ 5 н/о 1/1 1000 м
[]
+29.2 +15.3 43 +32 +41 душно 1015.3 1013.2 +17.4
03 13.08 ЮВ 5 н/о н/о +30.5 +13.3 35 +32 +32 жарко 1014.4 1012.3
05 13.08 ЮВ 6 н/о 6/0 2000 м
[]
+31.9 +13.2 32 +33 +36 жарко 1012.6 1010.5
06 13.08 ЮВ 4 н/о н/о +30.2 +12.1 33 +31 +31 жарко 1012.5 1010.4
08 13.08 З 2 н/о 9/0 2000 м
[]
+27.5 +17.4 54 +32 +32 очень
душно
1013.7 1011.6
09 13.08 В 5 н/о н/о +27.6 +13.2 41 +29 +29 жарко 1014.5 1012.4
11 13.08 В 3 н/о 6/0 2000 м
[]
+24.7 +13.6 50 +27 +27 жарко 1016.4 1014.3
12 13.08 В 3 н/о н/о +23.4 +14.4 57 +27 +27 душно 1016.8 1014.7
14 13.08 В 2 н/о 4/0 2000 м
[]
+21.0 +14.9 68 +25 +25 комфорт 1017.0 1014.9 +32.8
15 13.08 ЮВ 2 н/о н/о +19.7 +14.7 73 +22 +22 комфорт 1016.7 1014.6
17 13.08 ЮВ 2 н/о н/о +18.4 +15.5 83 +19 +19 1016.0 1013.9
18 13.08 ЮВ 2 н/о н/о +18.7 +16.3 86 +20 +20 1015.7 1013.6
20 13.08 ЮВ 2 н/о н/о +18.4 +16.6 89 +20 +20 1016.1 1014.0
21 13.08 ЮВ 2 н/о н/о +18.1 +16.4 90 +19 +19 1016.9 1014.8
23 13.08 ЮВ 4 н/о н/о +23.9 +17.4 67 +28 +28 душно 1017.8 1015.7
00 14.08 В 8 н/о н/о +26.4 +16.9 56 +30 +30 душно 1017.5 1015.4
02 14.08 В 8 н/о 1/0 2000 м
[]
+29.4 +15.5 43 +32 +35 душно 1015.6 1013.5 +17.5
03 14.08 В 9 н/о н/о +29.3 +14.3 40 +31 +31 жарко 1014.8 1012.7
05 14.08 В 7 н/о 4/4 1500 м
[]
+31.2 +13.5 34 +32 +34 жарко 1012.8 1010.7
06 14.08 В 7 н/о н/о +29.3 +13.9 39 +31 +31 жарко 1013.0 1010.9
08 14.08 В 6 н/о н/о +26.8 +14.9 48 +29 +29 жарко 1013.8 1011.7
09 14.08 В 5 н/о н/о +25.3 +14.7 52 +28 +28 жарко 1014.7 1012.6
11 14.08 В 5 н/о 1/0
[]
+23.7 +15.5 60 +27 +27 жарко 1016.7 1014.6
12 14.08 В 5 н/о н/о +22.9 +15.5 63 +27 +27 душно 1017.0 1014.9
14 14.08 В 4 н/о н/о +20.9 +15.7 72 +24 +24 комфорт 1016.2 1014.1 +31.7
15 14.08 В 5 н/о н/о +20.4 +15.8 75 +23 +23 комфорт 1015.7 1013.6
17 14.08 В 2 н/о н/о +19.4 +15.7 79 +22 +22 комфорт 1014.7 1012.6
18 14.08 ЮВ 2 н/о н/о +17.7 +15.0 84 +18 +18 1014.3 1012.2
20 14.08 ЮВ 3 н/о н/о +17.2 +15.2 88 +17 +17 1014.6 1012.5
21 14.08 В 2 н/о н/о +17.3 +15.3 88 +18 +18 1015.3 1013.2
23 14.08 В 7 н/о н/о +22.7 +16.3 67 +27 +27 душно 1016.2 1014.1
00 15.08 В 7 н/о н/о +25.4 +14.8 52 +28 +28 жарко 1016.3 1014.2
02 15.08 В 6 н/о н/о +29.4 +8.5 27 +29 +29 жарко 1014.4 1012.3 +16.8
03 15.08 ЮВ 5 н/о н/о +30.2 +9.7 28 +30 +30 жарко 1013.4 1011.3

 

Местоположение метеостанции Weipa Aero (Квинсленд, Австралия): широта -12.68 долгота 141.91 высота над уровнем моря 19 м.

В архиве по умолчанию представлена погода в Weipa Aero за последнюю неделю. Архивные данные за месяц целиком и за предыдущие месяцы, начиная с января 2011 года, Вы можете получить, выбрав интересующий диапазон дат из раскрывающегося списка и нажав кнопку "Ввод!".


*Определитесь, кто Вы:
робот инопланетянин человек

Внимание! Время в таблицах - всемирное. Для получения местного времени необходимо прибавить поправку, которая в Weipa Aero равна 10 ч.

Смотрите также архив погоды в соседних городах и на ближайших метеорологических станциях:

Погода в Scherger Raaf (Квинсленд, Австралия) (21 км)
Погода в Lockhart River Airport (Квинсленд, Австралия) (151 км)
Погода в Coen Airport (Квинсленд, Австралия) (179 км)
Погода в Horn Island (Квинсленд, Австралия) (237 км)
Погода в Kowanyama Airport (Квинсленд, Австралия) (312 км)
Погода в Coconut Island (Квинсленд, Австралия) (319 км)
Погода в Palmerville (Квинсленд, Австралия) (436 км)
Погода в Cape Flattery (Квинсленд, Австралия) (448 км)
Погода в Cooktown Airport (Квинсленд, Австралия) (468 км)
Погода в Merauke (Индонезия) (497 км)

Пояснения к столбцам:

Ветер - указаны скорость ветра в м/с - средняя за 10 мин, порывы в срок и между сроками (в фигурных скобках) и направление, откуда дует ветер: С - северный, СВ - северо-восточный, В - восточный, ЮВ - юго-восточный, Ю - южный, ЮЗ - юго-западный, З - западный, СЗ - северо-западный.
Видимость - горизонтальная дальность видимости в метрах или километрах. При видимости от 1 до 10 км при отсутствии осадков обычно наблюдается дымка, при ухудшении видимости до 1 км и менее - туман. В сухую погоду видимость может ухудшаться дымом, пылью или мглою.
Явления - указаны атмосферные явления, наблюдавшиеся в срок или в последний час перед сроком; фигурными скобками обозначены явления, наблюдавшиеся между сроками (за 1-3 часа до срока); квадратными скобками обозначены град или гололедные отложения с указанием их диаметра в мм.
Облачность - указаны через наклонную черту общая и нижняя облачность в баллах и высота нижней границы облаков в метрах; квадратными скобками обозначены формы облаков: Ci - перистые, Cs - перисто-слоистые, Cc - перисто-кучевые, Ac - высококучевые, As - высокослоистые, Sc - слоисто-кучевые, Ns - слоисто-дождевые, Cu - кучевые, Cb - кучево-дождевые. Подробнее классификацию облаков см. в Атласе облаков (PDF).
T - Температура воздуха - температура, измеренная на высоте 2 м над землей.
Td - Температура точки росы - температура, при понижении до которой содержащийся в воздухе водяной пар достигнет насыщения.
f - Относительная влажность воздуха - влажноcть воздуха, измеренная на высоте 2 м над землей.
Te - Эффективная температура - температура, которую ощущает одетый по сезону человек в тени. Характеристика душности погоды. При расчете учитывается влияние влажности воздуха и скорости ветра на теплоощущения человека.
Tes - Эффективная температура на солнце - температура, которую ощущает человек, с поправкой на солнечный нагрев. Характеристика знойности погоды. Зависит от высоты солнца над горизонтом, облачности и скорости ветра. Ночью, в пасмурную погоду, а также при ветре 12 м/с и более поправка равна нулю.
P - Атмосферное давление - приведенное к уровню моря атмосферное давление.
Po - Атмосферное давление - измеренное на уровне метеостанции атмосферное давление.
Tmin - Минимальная температура - минимум температуры воздуха на высоте 2 м над землей.
Tmax - Максимальная температура - максимум температуры воздуха на высоте 2 м над землей.
R - Количество осадков - Количество выпавших осадков за период времени, мм. При наведении курсора мыши на число - период времени, за который выпало указанное количество осадков.
R24 - Количество осадков - Количество выпавших осадков за 24 часа, мм.
S - Снежный покров - Высота снежного покрова, см. При наведении курсора мыши на число - состояние снежного покрова и степень покрытия местности в баллах.